Weather History for Ireland West Airport Knock, Ireland

Change the Weather History Date:

Saturday, August 17, 2013

  Actual Average Record
Temperature  
Mean Temperature 60 °F -  
Max Temperature 66 °F - - ()
Min Temperature 55 °F - - ()
Degree Days  
Heating Degree Days 4    
Growing Degree Days 10 (Base 50)    
Moisture  
Dew Point 55 °F    
Average Humidity 81    
Maximum Humidity 100    
Minimum Humidity 63    
Precipitation  
Precipitation 0.08 in - - ()
Sea Level Pressure  
Sea Level Pressure 29.54 in    
Wind  
Wind Speed 15 mph ()    
Max Wind Speed 23 mph    
Max Gust Speed -    
Visibility 5.5 miles    
Events Fog , Rain    
T = Trace of Precipitation, MM = Missing Value Source: Averaged Metar Reports

Daily Weather History Graph

Daily Weather History Graph

Search for Another Location

Airport:

Trip Planner

Search our weather history database for the weather conditions in past years. The results will help you decide how hot, cold, wet, or windy it might be!

Date:

Astronomy

Aug. 17, 2013 Rise Set
Actual Time 6:17 AM IST 9:00 PM IST
Civil Twilight 5:37 AM IST 9:39 PM IST
Nautical Twilight 4:45 AM IST 10:31 PM IST
Astronomical Twilight 3:39 AM IST 11:35 PM IST
Moon 6:19 PM IST (8/17) 1:47 AM IST (8/17)
Length of Visible Light 16h 02m
Length of Day
14h 43m
Waxing Gibbous, 82% of the Moon is Illuminated
Aug 17
Waxing Gibbous
Aug 21
Full
Aug 28
Last Quarter
Sep 5
New
Sep 12
First Quarter

Hourly Weather History & Observations

Time (IST) Temp. Dew Point Humidity Pressure Visibility Wind Dir Wind Speed Gust Speed Precip Events Conditions
1:00 AM 56 °F 55 °F 95% 29.78 in - South 11.2 mph - -  
7:00 AM 58 °F 58 °F 100% 29.55 in 0 mi South 15.7 mph - - Rain Light Rain
7:00 AM 59.0 °F 59.0 °F 100% 29.53 in 0.4 mi South 15.0 mph - N/A Fog , Rain Light Rain
7:30 AM 59.0 °F 59.0 °F 100% 29.53 in 1.7 mi SSW 18.4 mph - N/A Rain Light Rain
8:00 AM 60.8 °F 59.0 °F 94% 29.53 in 3.7 mi SSW 16.1 mph - N/A Rain Light Rain
8:30 AM 60.8 °F 60.8 °F 100% 29.53 in 3.7 mi WSW 13.8 mph - N/A Rain Light Rain
9:00 AM 60.8 °F 59.0 °F 94% 29.53 in 6.2 mi WSW 16.1 mph - N/A   Partly Cloudy
9:30 AM 60.8 °F 57.2 °F 88% 29.53 in 6.2 mi West 17.3 mph - N/A   Scattered Clouds
10:00 AM 62.6 °F 57.2 °F 82% 29.53 in 6.2 mi WSW 17.3 mph - N/A   Partly Cloudy
10:30 AM 62.6 °F 57.2 °F 82% 29.53 in 6.2 mi WSW 18.4 mph - N/A   Mostly Cloudy
11:00 AM 62.6 °F 55.4 °F 77% 29.53 in 6.2 mi WSW 18.4 mph - N/A   Mostly Cloudy
11:30 AM 62.6 °F 55.4 °F 77% 29.53 in 6.2 mi WSW 16.1 mph - N/A   Scattered Clouds
12:00 PM 64.4 °F 55.4 °F 73% 29.53 in 6.2 mi WSW 16.1 mph - N/A   Scattered Clouds
12:30 PM 64.4 °F 55.4 °F 73% 29.53 in 6.2 mi West 17.3 mph - N/A   Scattered Clouds
1:00 PM 65 °F 55 °F 63% 29.52 in 25 mi WSW 17.9 mph - -   Partly Cloudy
1:00 PM 64.4 °F 55.4 °F 73% 29.50 in 6.2 mi WSW 17.3 mph - N/A   Scattered Clouds
1:30 PM 66.2 °F 53.6 °F 64% 29.50 in 6.2 mi West 18.4 mph - N/A   Partly Cloudy
2:00 PM 64.4 °F 53.6 °F 68% 29.50 in 6.2 mi West 18.4 mph - N/A   Scattered Clouds
2:30 PM 64.4 °F 53.6 °F 68% 29.53 in 6.2 mi West 23.0 mph - N/A   Partly Cloudy
3:00 PM 64.4 °F 53.6 °F 68% 29.50 in 6.2 mi West 20.7 mph - N/A   Scattered Clouds
3:30 PM 60.8 °F 55.4 °F 82% 29.50 in 6.2 mi West 19.6 mph - N/A   Mostly Cloudy
4:00 PM 60.8 °F 53.6 °F 77% 29.53 in 6.2 mi West 23.0 mph - N/A   Mostly Cloudy
4:30 PM 60.8 °F 51.8 °F 72% 29.53 in 6.2 mi West 23.0 mph - N/A   Mostly Cloudy
5:00 PM 59.0 °F 53.6 °F 82% 29.53 in 6.2 mi West 16.1 mph - N/A   Mostly Cloudy
5:30 PM 57.2 °F 53.6 °F 88% 29.53 in 5.6 mi West 20.7 mph - N/A Rain Light Rain Showers
6:00 PM 57.2 °F 51.8 °F 82% 29.56 in 6.2 mi West 16.1 mph - N/A   Mostly Cloudy
7:00 PM 58 °F 50 °F 67% 29.58 in 12 mi West 13.4 mph - - Rain Light Rain Showers